Lexington Weather

Lexington, Massachusetts, USA

68°F
7/3/2020 12:33pm 
  • Lexington Conditions: Overcast
  • Temperature: 67.8°F / 19.9°CColder 1.3°F than last hour.
  • Dew Point: 63.9°FDecreased 1.4°Fsince last hour.
  • Relative Humidity: 87%Decreased 1.0% since last hour.
  • Wind: Wind from NNW NNW 2 mph, 10-min avg: 1 mph, gust: 3 mph
  • Barometer: 29.86 in Steady
  • Visibility: 10 miles
  • Rain Today: 0.00 in
  •   

Regional Weather Roundup
for Boston / Norton, MA

        
000
ASUS41 KBOX 290704
RWRBOX

REGIONAL WEATHER ROUNDUP
NATIONAL WEATHER SERVICE BOSTON/NORTON MA
300 AM EDT MON JUN 29 2020

NOTE:  "FAIR" INDICATES FEW OR NO CLOUDS BELOW 12,000 FEET WITH NO 
SIGNIFICANT WEATHER AND/OR OBSTRUCTIONS TO VISIBILITY.

MAZALL-290800-
EASTERN MASSACHUSETTS
  
CITY           SKY/WX    TMP DP  RH WIND       PRES   REMARKS
BOSTON         CLOUDY    65  64  97 S3        29.74F                  
BEVERLY        CLOUDY    67  66  97 CALM      29.74R THUNDER          
LAWRENCE       CLOUDY    68  66  93 CALM      29.76S                  
BEDFORD        RAIN      67  64  90 CALM      29.73S                  
BLUE HILL        N/A     64  62  93 SE6       29.74F                  
NORWOOD        FOG       63  60  90 CALM      29.73F VSB 3/4          
MARSHFIELD     CLOUDY    66  66 100 CALM      29.73F                  
PLYMOUTH       CLOUDY    68  66  93 CALM      29.73F                  
TAUNTON        LGT RAIN  66  64  93 CALM      29.72F                  
NEW BEDFORD    TSTM      71  69  93 SW9       29.75R                  
$$

MAZALL-290800-
CAPE COD AND THE ISLANDS
  
CITY           SKY/WX    TMP DP  RH WIND       PRES   REMARKS
FALMOUTH       CLOUDY    68  68 100 CALM      29.74F FOG              
HYANNIS        CLOUDY    72  69  90 S6        29.72F FOG              
CHATHAM        CLOUDY    68  66  93 S5        29.75F                  
PROVINCETOWN   CLOUDY    69  69 100 S7        29.74F                  
NANTUCKET      FOG       65  64  97 S10       29.74F VSB 1/4          
MARTHAS VNYRD  FOG       68  67  96 E3        29.73F VSB 1/2          
$$
 
MAZALL-290800-
CENTRAL AND WESTERN MASSACHUSETTS
  
CITY           SKY/WX    TMP DP  RH WIND       PRES   REMARKS
WORCESTER      FOG       65  63  93 CALM      29.77S VSB 1/2          
FITCHBURG      CLOUDY    67  64  90 CALM      29.75F                  
ORANGE         CLOUDY    66  64  93 CALM      29.77R                  
SPRINGFIELD    CLOUDY    65  65 100 N5        29.72F FOG              
WESTFIELD      FOG       64  64 100 NW5       29.74S VSB 1/2          
NORTH ADAMS    CLOUDY    64  63  96 CALM      29.77S                  
PITTSFIELD     MOCLDY    60  59  96 CALM      29.77S FOG              
$$
 
RIZALL-290800-
RHODE ISLAND
  
CITY           SKY/WX    TMP DP  RH WIND       PRES   REMARKS
PROVIDENCE     CLOUDY    69  67  93 N6        29.73F                  
NEWPORT        CLOUDY    70  68  93 NE6       29.72F FOG              
BLOCK ISLAND   FOG       68  68 100 S7        29.73R VSB 1/2          
SMITHFIELD     PTCLDY    63  63 100 E3        29.75F                  
WESTERLY       CLOUDY    71  66  84 CALM      29.73F HAZE             
$$
 
CTZALL-290800-
CONNECTICUT
  
CITY           SKY/WX    TMP DP  RH WIND       PRES   REMARKS
BRADLEY INTL   PTCLDY    65  64  97 CALM      29.73S                  
HARTFORD       CLEAR     69  66  90 S3        29.72R                  
BRIDGEPORT     CLEAR     70  67  90 N3        29.72S                  
DANBURY        CLEAR     62  61  96 CALM      29.76R                  
GROTON         CLOUDY    68  67  96 N5        29.71S FOG              
NEW HAVEN      CLEAR     70  68  93 N3        29.72S                  
CHESTER        NOT AVBL                                               
MERIDEN        FOG       66  65  96 CALM      29.73S VSB 1/4          
WILLIMANTIC    CLOUDY    69  68  96 CALM      29.74S FOG              
OXFORD         CLEAR     65  65 100 N5        29.76S                  
$$

MEZ002-015-021-024-NHZ003-005-008-011-012-014-VTZ005-008-290800-
NORTHERN NEW ENGLAND
  
CITY           SKY/WX    TMP DP  RH WIND       PRES   REMARKS
PORTLAND ME    CLOUDY    66  62  87 E9        29.77R                  
BANGOR ME      CLOUDY    65  61  87 NE3       29.83S                  
CONCORD NH     CLOUDY    64  63  96 CALM      29.75F                  
MANCHESTER NH  CLOUDY    69  67  93 N5        29.74F                  
NASHUA NH      CLOUDY    67  67 100 NW5       29.75F                  
PORTSMOUTH NH  TSTM      67  66  97 NW6       29.72  FOG              
JAFFREY NH     CLOUDY    65  62  90 CALM      29.78S                  
KEENE NH       CLOUDY    66  65  96 N3        29.76S                  
BURLINGTON VT  CLOUDY    67  64  90 N5        29.77S                  
MT. WASHINGTON LGT RAIN  48  48 100 S9          N/A  VSB 1/8          
$$

NYZ052-076-290800-
EASTERN NEW YORK
  
CITY           SKY/WX    TMP DP  RH WIND       PRES   REMARKS
ALBANY         MOCLDY    65  62  90 CALM      29.76S                  
NEW YORK CITY  CLEAR     75  65  70 NW9       29.72S                  
$$
 
ANZALL-290800-
MARINE OBSERVATIONS
  
STATION/POSITION TIME  TEMP    WIND        PRES    VSBY  WAVE
                       AIR SEA DIR/SP/G                  HT/PER
                 (UTC) (F)     (DEG/KT/KT) (MB)    (MI)  (FT/S)
BOSTON BUOY      0650   67 68  160/  2/  4 1005.6          2/ 8
BUZZARDS BAY     0600          160/ 12/ 12 1007.9S
NANTUCKET SOUND  0650   68 69  180/  8/ 12 1006.2F         1/ 3
MASS BAY-STELLWA 0604   65     230/  4/  6 1005.1S  1 7/8  2/ 8
ISLE OF SHOALS   0600   65     350/  3/  3 1007.2R
S OF BLOCK IS    0626      70                N/A           3/ 6
$$

......................KEY.........................
  SKY/WX - SKY CONDITION/PRESENT WEATHER
  TMP    - TEMPERATURE IN FAHRENHEIT
  DWPT   - DEWPOINT IN FAHRENHEIT
  RH     - RELATIVE HUMIDITY IN PERCENT
  WIND   - DIRECTION AND SPEED IN MPH
  PRES   - MEAN SEA LEVEL PRESSURE IN INCHES OF HG
  WCI    - WIND CHILL INDEX
  VSB    - VISIBILITY IN MILES
  HX     - HEAT INDEX
  TC     - TEMPERATURE IN CELSIUS
  VRB    - VARIABLE WIND DIRECTION
  N/A    - NOT AVAILABLE
  
      

Other recent Regional Weather Roundups

Fri Jul 3, 12:04pm

Fri Jul 3, 11:04am

Fri Jul 3, 10:04am

Fri Jul 3, 9:04am

Fri Jul 3, 8:04am

Fri Jul 3, 7:04am

Fri Jul 3, 6:04am

Fri Jul 3, 5:04am

Fri Jul 3, 4:04am

Fri Jul 3, 3:04am

Fri Jul 3, 2:04am

Fri Jul 3, 1:04am

Fri Jul 3, 12:04am

Thu Jul 2, 11:05pm

Thu Jul 2, 10:04pm

Thu Jul 2, 9:04pm

Thu Jul 2, 8:04pm

Thu Jul 2, 7:05pm

Thu Jul 2, 6:04pm

Thu Jul 2, 5:05pm

Thu Jul 2, 4:04pm

Thu Jul 2, 3:04pm

Thu Jul 2, 2:04pm

Thu Jul 2, 1:05pm

Thu Jul 2, 12:04pm

Thu Jul 2, 11:04am

Thu Jul 2, 10:05am

Thu Jul 2, 9:05am

Thu Jul 2, 8:04am

Thu Jul 2, 7:04am

Thu Jul 2, 6:05am

Thu Jul 2, 5:04am

Thu Jul 2, 4:04am

Thu Jul 2, 3:04am

Thu Jul 2, 2:04am

Thu Jul 2, 1:04am

Thu Jul 2, 12:05am

Wed Jul 1, 11:05pm

Wed Jul 1, 10:04pm

Wed Jul 1, 9:04pm

Wed Jul 1, 8:04pm

Wed Jul 1, 7:04pm

Wed Jul 1, 6:04pm

Wed Jul 1, 5:05pm

Wed Jul 1, 4:04pm

Wed Jul 1, 3:04pm

Wed Jul 1, 2:04pm

Wed Jul 1, 1:04pm

Wed Jul 1, 12:04pm

Wed Jul 1, 11:04am

Wed Jul 1, 10:04am

Wed Jul 1, 9:04am

Wed Jul 1, 8:05am

Wed Jul 1, 7:04am

Wed Jul 1, 6:04am

Wed Jul 1, 5:04am

Wed Jul 1, 4:04am

Wed Jul 1, 3:04am

Wed Jul 1, 2:04am

Wed Jul 1, 1:04am

Wed Jul 1, 12:04am

Tue Jun 30, 11:04pm

Tue Jun 30, 10:05pm

Tue Jun 30, 9:04pm

Tue Jun 30, 8:05pm

Tue Jun 30, 7:05pm

Tue Jun 30, 6:04pm

Tue Jun 30, 5:04pm

Tue Jun 30, 4:04pm

Tue Jun 30, 3:04pm

Tue Jun 30, 2:04pm

Tue Jun 30, 1:04pm

Tue Jun 30, 12:04pm

Tue Jun 30, 11:04am

Tue Jun 30, 10:04am

Tue Jun 30, 9:04am

Tue Jun 30, 8:04am

Tue Jun 30, 7:04am

Tue Jun 30, 6:04am

Tue Jun 30, 5:04am

Tue Jun 30, 4:04am

Tue Jun 30, 3:04am

Tue Jun 30, 2:04am

Tue Jun 30, 1:04am

Tue Jun 30, 12:04am

Mon Jun 29, 11:04pm

Mon Jun 29, 10:05pm

Mon Jun 29, 9:04pm

Mon Jun 29, 8:05pm

Mon Jun 29, 7:04pm

Mon Jun 29, 6:04pm

Mon Jun 29, 5:04pm

Mon Jun 29, 4:05pm

Mon Jun 29, 3:04pm

Mon Jun 29, 2:04pm

Mon Jun 29, 1:04pm

Mon Jun 29, 12:04pm

Mon Jun 29, 11:04am

Mon Jun 29, 10:04am

Mon Jun 29, 9:04am

Mon Jun 29, 8:04am

Mon Jun 29, 7:04am

Mon Jun 29, 6:04am

Mon Jun 29, 5:04am

Mon Jun 29, 4:04am

Mon Jun 29, 2:04am

Mon Jun 29, 1:04am

Mon Jun 29, 12:04am

Sun Jun 28, 11:05pm

Sun Jun 28, 10:04pm

Sun Jun 28, 9:05pm

Sun Jun 28, 8:04pm

Sun Jun 28, 7:04pm

Sun Jun 28, 6:04pm

Sun Jun 28, 5:04pm

Sun Jun 28, 4:04pm

Sun Jun 28, 3:04pm

Sun Jun 28, 2:05pm

Sun Jun 28, 1:04pm

Sun Jun 28, 12:04pm

Sun Jun 28, 11:04am

Sun Jun 28, 10:04am

Sun Jun 28, 9:04am

Sun Jun 28, 8:04am

Sun Jun 28, 7:04am

Sun Jun 28, 6:04am

Sun Jun 28, 5:04am

Sun Jun 28, 4:04am

Sun Jun 28, 3:04am

Sun Jun 28, 2:05am

Sun Jun 28, 1:04am

Sun Jun 28, 12:05am

Sat Jun 27, 11:04pm

Sat Jun 27, 10:04pm

Sat Jun 27, 9:04pm

Sat Jun 27, 8:04pm

Sat Jun 27, 7:04pm

Sat Jun 27, 6:04pm

Sat Jun 27, 5:04pm

Sat Jun 27, 4:05pm

Sat Jun 27, 3:04pm

Sat Jun 27, 2:04pm

Sat Jun 27, 1:05pm

Sat Jun 27, 12:04pm

Sat Jun 27, 11:04am

Sat Jun 27, 10:04am

Sat Jun 27, 9:04am

Sat Jun 27, 8:04am

Sat Jun 27, 7:04am

Sat Jun 27, 6:04am

Sat Jun 27, 5:05am

Sat Jun 27, 4:04am

Sat Jun 27, 3:04am

Sat Jun 27, 2:04am

Sat Jun 27, 1:04am

Sat Jun 27, 12:04am

Fri Jun 26, 11:04pm

Fri Jun 26, 10:04pm

Fri Jun 26, 9:05pm

Fri Jun 26, 8:04pm

Fri Jun 26, 7:05pm

Fri Jun 26, 6:04pm

Fri Jun 26, 5:04pm

Fri Jun 26, 4:04pm

Fri Jun 26, 3:04pm

Fri Jun 26, 2:05pm

Fri Jun 26, 1:04pm

Meta data:

ID: d2feac3e-4dd2-430f-81aa-bdd45291f8af
Link: https://api.weather.gov/products/d2feac3e-4dd2-430f-81aa-bdd45291f8af